User: anonymous   Login
Location: Newark
(35.5300°N, 14.3000°E)
Time: 00:19:46
(UTC+00:00)
Language:

S-56A Canister/Altair - Orbit

View from above orbital plane
View from above orbital plane
View from above satellite
View from above satellite

Ground track
Ground track

The orbit data is extracted from the following two-line orbital elements,

1    82U 61004B   19314.91819583 -.00000004 +00000-0 +46074-4 0  9993
2    82 038.8558 291.2696 1173630 104.0248 269.3492 12.26055285780864
Epoch (UTC): 10 November 2019 22:02:12
Eccentricity: 0.1173630
inclination: 38.8558°
perigee height: 634 km
apogee height: 2498 km
right ascension of ascending node: 291.2696°
argument of perigee: 104.0248°
revolutions per day: 12.26055285
mean anomaly at epoch: 269.3492°
orbit number at epoch: 78086

The dashed part of the orbit path shows where the satellite is in the earth's shadow,  

DLR